Total_Precipitation_Accumulation
1.29 1.34 1.51 1.31 1.04 0.74 0.72 0.73 1.17 1.62 1.44 1.31 1.32 0.99 0.94 0.69 0.66 0.87 0.49 0.55 1.00 0.92 0.25 0.05 0.05 0.17 0.48 0.47 0.50 0.46 0.62 0.41 0.56 0.68 0.53 0.28 0.20 0.14 0.10 0.05 0.05 0.12 0.16 0.14 0.20 0.28 0.07 0.00 0.01 0.05 0.05 0.01 0.00 0.01
1.26 1.27 1.22 1.18 1.24 1.35 0.96 0.93 1.20 1.44 1.22 1.04 0.87 0.76 0.78 0.70 0.70 1.09 0.72 0.43 0.74 0.93 0.45 0.08 0.06 0.08 0.28 0.40 0.53 0.57 0.68 0.41 0.61 0.71 0.57 0.41 0.30 0.18 0.13 0.14 0.02 0.10 0.12 0.14 0.10 0.07 0.02 0.02 0.09 0.05 0.03 0.02 0.00 0.00
1.79 1.53 1.32 1.13 0.87 1.01 1.49 1.65 1.49 1.36 1.05 0.88 0.71 0.66 0.74 0.73 0.74 1.21 0.82 0.56 0.87 0.94 0.51 0.14 0.08 0.03 0.10 0.22 0.40 0.62 0.46 0.35 0.49 0.48 0.91 0.69 0.47 0.20 0.21 0.15 0.08 0.05 0.10 0.18 0.15 0.03 0.01 0.01 0.01 0.03 0.06 0.05 0.01 0.00
2.21 1.75 1.45 1.44 1.36 0.98 1.14 1.82 1.95 1.66 1.28 0.92 0.73 0.71 0.61 0.64 0.80 1.17 0.74 0.52 0.94 1.48 1.56 0.36 0.04 0.01 0.04 0.19 0.30 0.37 0.53 0.39 0.46 0.66 1.18 1.30 0.70 0.19 0.11 0.09 0.07 0.06 0.06 0.07 0.08 0.02 0.01 0.01 0.01 0.01 0.01 0.01 0.01 0.00
2.74 2.38 1.76 1.41 1.51 1.64 1.32 1.36 1.35 1.31 1.19 0.80 0.68 0.73 0.71 0.80 1.05 1.05 0.67 0.59 0.63 1.27 1.50 0.55 0.15 0.04 0.03 0.17 0.34 0.41 0.55 0.81 0.80 1.09 1.35 0.88 0.38 0.30 0.23 0.21 0.14 0.02 0.07 0.11 0.10 0.01 0.04 0.04 0.01 0.01 0.02 0.01 0.00 0.00
3.11 3.17 2.96 2.15 1.57 1.53 1.71 1.41 1.34 1.16 1.03 0.67 0.67 0.83 0.92 0.95 1.54 1.69 2.51 1.49 0.74 0.97 2.54 1.87 0.60 0.17 0.10 0.23 0.43 0.57 0.58 0.69 1.18 1.55 1.28 0.67 0.26 0.63 1.19 0.42 0.04 0.06 0.03 0.03 0.04 0.02 0.04 0.03 0.01 0.01 0.01 0.01 0.01 0.00
2.64 2.98 3.64 3.72 2.67 2.10 2.16 1.59 1.37 1.23 1.08 0.85 0.89 0.90 0.88 1.12 1.52 1.96 2.41 1.35 1.05 1.54 3.50 3.09 1.64 0.57 0.25 0.35 0.65 0.80 0.81 0.88 1.13 1.69 1.24 0.71 0.42 1.29 1.79 0.77 0.09 0.02 0.01 0.01 0.02 0.08 0.10 0.01 0.02 0.01 0.02 0.01 0.02 0.01
2.19 2.43 2.88 3.86 4.03 3.39 2.71 1.95 1.50 1.39 1.30 1.12 1.12 1.15 1.28 1.77 2.06 1.93 1.27 0.96 1.26 2.22 3.32 3.41 1.82 0.78 0.53 0.64 0.93 0.95 0.95 1.06 1.26 1.42 0.97 0.52 0.70 1.36 1.45 0.25 0.05 0.04 0.03 0.01 0.01 0.02 0.06 0.03 0.02 0.04 0.06 0.04 0.04 0.02
2.00 1.94 2.10 2.66 2.99 3.49 3.61 3.26 2.23 1.76 1.73 1.82 2.13 2.44 2.91 2.84 2.26 1.80 1.47 1.59 1.66 3.12 5.00 3.05 1.10 0.78 0.73 0.56 0.72 0.87 1.06 1.51 1.42 1.07 0.84 0.79 0.89 1.00 0.48 0.14 0.02 0.01 0.05 0.06 0.02 0.00 0.01 0.03 0.03 0.01 0.02 0.03 0.05 0.06
1.89 1.72 1.66 2.02 1.77 2.12 2.96 3.19 3.29 2.74 2.65 3.24 3.45 3.68 3.75 2.99 2.40 2.50 3.38 4.37 5.01 4.62 3.61 1.92 0.70 0.73 0.74 0.65 1.06 1.28 1.41 1.41 1.31 0.73 0.70 1.19 0.69 0.28 0.10 0.03 0.02 0.04 0.04 0.04 0.09 0.06 0.04 0.05 0.03 0.02 0.03 0.03 0.06 0.06
1.57 1.58 1.44 1.85 1.43 1.42 1.97 3.20 3.34 3.40 3.76 3.89 3.56 3.02 3.00 2.67 3.33 4.23 4.81 4.46 4.15 3.53 2.29 1.33 0.87 0.64 0.56 0.79 1.10 1.38 1.59 1.35 1.30 0.54 0.86 0.95 0.47 0.15 0.09 0.06 0.03 0.03 0.04 0.04 0.06 0.09 0.09 0.11 0.10 0.08 0.08 0.08 0.07 0.07
1.46 1.43 1.40 1.75 1.34 1.33 1.49 2.34 3.20 3.84 4.01 3.45 2.80 2.78 3.40 3.75 4.40 4.27 3.37 2.25 2.06 1.67 1.24 0.88 0.46 0.44 0.70 1.00 1.63 2.01 1.73 1.43 0.97 0.66 1.13 0.47 0.13 0.02 0.07 0.11 0.13 0.12 0.12 0.12 0.12 0.19 0.21 0.25 0.24 0.21 0.17 0.14 0.11 0.11
1.69 1.45 1.47 1.75 1.38 1.44 1.61 1.84 2.07 3.25 3.44 3.40 3.58 4.00 3.71 3.33 3.13 2.35 1.42 0.97 0.80 0.58 0.51 0.43 0.46 0.62 0.85 1.22 2.06 1.94 1.87 1.26 0.78 0.96 0.60 0.16 0.04 0.11 0.20 0.15 0.10 0.05 0.09 0.24 0.38 0.47 0.38 0.26 0.18 0.20 0.30 0.30 0.31 0.30
1.83 1.56 1.74 1.95 1.61 1.67 1.86 1.98 2.41 3.25 3.60 4.40 4.18 3.80 2.50 1.84 0.92 0.45 0.36 0.33 0.22 0.30 0.39 0.37 0.66 0.80 0.90 1.26 1.53 1.70 1.10 1.00 0.98 0.56 0.21 0.12 0.18 0.27 0.25 0.22 0.20 0.13 0.15 0.31 0.45 0.43 0.34 0.35 0.35 0.35 0.38 0.42 0.42 0.46
2.00 2.03 2.47 2.46 2.13 2.10 2.03 2.43 3.23 3.41 3.90 4.00 3.44 2.26 1.28 0.65 0.39 0.35 0.28 0.31 0.44 0.49 0.56 0.68 0.91 0.92 1.17 1.58 1.37 1.33 1.33 0.78 0.26 0.15 0.16 0.25 0.40 0.51 0.54 0.54 0.50 0.37 0.36 0.49 0.65 0.65 0.60 0.38 0.32 0.47 0.65 0.65 0.49 0.49
2.56 3.20 3.31 2.66 2.45 2.57 2.65 3.46 4.46 4.37 4.39 3.64 2.91 1.64 0.75 0.45 0.41 0.44 0.43 0.50 0.57 0.62 0.76 1.25 1.43 1.43 1.57 1.53 1.37 0.87 0.70 0.37 0.30 0.46 0.58 0.57 0.71 0.80 0.82 0.85 0.90 0.91 0.89 0.81 1.13 1.28 1.02 0.68 0.56 0.58 0.61 0.73 0.65 0.56
3.77 3.68 2.68 2.14 2.57 3.09 3.46 4.52 5.56 5.55 4.94 3.88 1.79 0.83 0.72 0.66 0.69 0.73 0.65 0.67 0.70 1.02 1.09 1.68 1.96 1.21 1.02 1.11 0.51 0.26 0.31 0.31 0.51 0.73 0.81 0.82 0.86 0.78 0.67 0.75 0.90 1.07 1.23 1.05 1.09 1.19 1.26 1.05 0.66 0.37 0.46 0.47 0.35 0.32
3.14 2.15 1.80 2.33 3.37 4.61 6.11 5.61 5.20 4.90 3.73 1.97 0.82 0.49 0.48 0.56 0.55 0.45 0.45 0.56 0.88 1.11 1.22 1.66 1.47 1.34 1.06 0.65 0.34 0.29 0.34 0.38 0.50 0.62 0.78 0.86 0.79 0.81 0.75 0.82 0.87 0.83 0.81 0.75 0.65 0.59 0.47 0.32 0.33 0.39 0.39 0.32 0.28 0.28
2.07 1.72 1.91 2.59 3.27 4.62 5.50 5.34 4.22 3.55 1.73 0.78 0.47 0.36 0.31 0.36 0.31 0.36 0.39 0.49 0.77 0.82 1.12 1.30 1.51 1.09 0.55 0.39 0.37 0.37 0.43 0.47 0.58 0.62 0.74 0.72 0.60 0.55 0.47 0.41 0.38 0.35 0.36 0.35 0.30 0.31 0.28 0.22 0.23 0.21 0.21 0.12 0.10 0.09
2.92 2.69 2.55 2.85 2.99 4.53 4.95 4.24 3.01 1.70 0.86 0.44 0.38 0.31 0.29 0.46 0.37 0.27 0.27 0.29 0.39 0.88 1.56 1.45 0.88 0.63 0.71 0.74 0.70 0.61 0.68 0.69 0.52 0.39 0.43 0.36 0.24 0.12 0.06 0.04 0.04 0.02 0.03 0.03 0.05 0.04 0.04 0.03 0.03 0.02 0.01 0.01 0.02 0.04
5.36 4.79 4.70 4.90 5.75 5.80 4.50 2.62 1.79 1.17 0.60 0.43 0.37 0.31 0.41 0.33 0.41 0.42 0.49 0.48 1.06 1.64 1.33 0.82 0.69 0.77 0.75 0.75 0.82 0.76 0.71 0.43 0.24 0.15 0.12 0.07 0.03 0.01 0.00 0.00 0.00 0.00 0.00 0.00 0.00 0.00 0.01 0.01 0.01 0.01 0.01 0.02 0.03 0.05
5.47 5.44 6.72 6.66 6.82 6.15 4.48 2.48 1.29 0.81 0.65 0.65 0.46 0.46 0.62 0.54 0.47 0.61 0.85 1.21 1.51 1.00 0.73 0.65 0.65 0.67 0.55 0.52 0.44 0.30 0.23 0.08 0.05 0.03 0.02 0.02 0.02 0.01 0.01 0.00 0.00 0.01 0.01 0.01 0.02 0.02 0.02 0.02 0.01 0.01 0.03 0.03 0.04 0.04
4.40 4.64 5.07 5.39 5.39 4.63 3.42 1.65 1.17 0.94 0.66 0.61 0.54 0.69 0.73 0.61 0.57 0.69 1.13 1.10 0.83 0.69 0.62 0.52 0.47 0.35 0.27 0.20 0.13 0.07 0.08 0.07 0.03 0.01 0.00 0.00 0.00 0.00 0.00 0.00 0.00 0.01 0.01 0.01 0.01 0.01 0.02 0.01 0.02 0.02 0.03 0.04 0.04 0.04
4.68 5.39 5.30 4.82 3.60 2.95 2.15 1.63 1.04 0.70 0.76 0.68 0.70 0.68 0.65 0.56 0.67 0.83 0.72 0.35 0.49 0.61 0.57 0.62 0.49 0.31 0.22 0.18 0.17 0.16 0.12 0.09 0.08 0.07 0.04 0.02 0.01 0.00 0.00 0.00 0.01 0.02 0.02 0.02 0.00 0.01 0.02 0.03 0.04 0.06 0.07 0.10 0.11 0.09
7.50 7.33 4.53 3.87 2.51 1.39 0.83 0.61 0.52 0.38 0.34 0.29 0.43 0.51 0.50 0.57 0.64 0.61 0.33 0.31 0.42 0.52 0.60 0.57 0.47 0.38 0.27 0.23 0.18 0.15 0.15 0.18 0.13 0.13 0.15 0.15 0.08 0.04 0.03 0.02 0.01 0.02 0.01 0.03 0.05 0.06 0.06 0.06 0.09 0.12 0.14 0.16 0.19 0.21
5.26 3.66 2.71 1.31 0.75 0.31 0.28 0.25 0.20 0.16 0.15 0.26 0.36 0.39 0.47 0.53 0.59 0.45 0.22 0.30 0.45 0.58 0.57 0.46 0.33 0.24 0.19 0.17 0.15 0.15 0.12 0.15 0.17 0.20 0.25 0.27 0.25 0.20 0.13 0.08 0.05 0.04 0.04 0.12 0.22 0.25 0.19 0.14 0.14 0.16 0.18 0.17 0.23 0.33
2.96 1.92 0.96 0.34 0.12 0.06 0.07 0.08 0.08 0.10 0.24 0.33 0.31 0.31 0.45 0.72 0.47 0.24 0.24 0.34 0.43 0.53 0.53 0.47 0.30 0.22 0.20 0.20 0.22 0.24 0.22 0.22 0.22 0.18 0.24 0.33 0.32 0.28 0.29 0.35 0.36 0.26 0.33 0.40 0.39 0.38 0.39 0.33 0.29 0.26 0.30 0.29 0.29 0.39
1.14 0.37 0.31 0.26 0.10 0.06 0.09 0.12 0.14 0.18 0.22 0.22 0.19 0.30 0.44 0.35 0.20 0.22 0.30 0.40 0.49 0.50 0.50 0.50 0.39 0.31 0.29 0.27 0.28 0.31 0.32 0.32 0.35 0.37 0.42 0.46 0.45 0.40 0.36 0.49 0.65 0.72 0.72 0.66 0.71 0.76 0.68 0.61 0.52 0.47 0.46 0.47 0.40 0.40
0.46 0.28 0.14 0.17 0.20 0.22 0.20 0.16 0.16 0.14 0.10 0.14 0.16 0.18 0.20 0.16 0.17 0.23 0.31 0.39 0.47 0.48 0.46 0.43 0.42 0.38 0.36 0.35 0.39 0.46 0.45 0.39 0.33 0.37 0.28 0.25 0.32 0.44 0.50 0.54 0.69 0.78 0.75 0.79 0.71 0.73 0.82 0.87 0.89 0.86 0.74 0.61 0.50 0.50
0.31 0.20 0.17 0.16 0.15 0.16 0.15 0.11 0.10 0.12 0.10 0.09 0.07 0.08 0.09 0.14 0.22 0.29 0.32 0.37 0.43 0.48 0.50 0.49 0.45 0.44 0.43 0.42 0.43 0.46 0.48 0.47 0.46 0.46 0.62 0.47 0.34 0.44 0.61 0.69 0.73 0.76 0.83 0.85 0.78 0.78 0.78 0.81 0.79 0.72 0.67 0.62 0.57 0.52
0.21 0.18 0.17 0.18 0.21 0.21 0.23 0.27 0.25 0.19 0.16 0.16 0.14 0.12 0.12 0.15 0.22 0.28 0.30 0.34 0.41 0.47 0.49 0.51 0.49 0.49 0.48 0.50 0.49 0.48 0.51 0.53 0.57 0.56 0.58 0.76 0.78 0.76 0.74 0.78 0.85 0.97 0.95 0.85 0.74 0.67 0.61 0.60 0.56 0.53 0.53 0.52 0.50 0.48
0.32 0.27 0.15 0.19 0.28 0.34 0.36 0.36 0.33 0.28 0.29 0.24 0.24 0.23 0.21 0.17 0.18 0.22 0.29 0.32 0.36 0.39 0.44 0.44 0.38 0.39 0.42 0.43 0.48 0.56 0.58 0.59 0.65 0.71 0.81 0.92 0.90 0.75 0.74 0.81 0.90 0.97 0.94 0.84 0.71 0.65 0.62 0.65 0.67 0.64 0.62 0.57 0.51 0.46
0.50 0.41 0.34 0.31 0.36 0.41 0.39 0.36 0.47 0.45 0.36 0.30 0.27 0.24 0.20 0.16 0.17 0.21 0.27 0.27 0.28 0.32 0.36 0.39 0.42 0.45 0.48 0.50 0.54 0.61 0.65 0.68 0.68 0.82 1.07 1.12 1.09 1.07 1.06 1.00 0.84 0.80 0.76 0.71 0.68 0.73 0.74 0.73 0.67 0.63 0.61 0.56 0.50 0.46